SL-16 DEB, 22338

Orbit data source: Space-Track

SL-16 DEB, 22338 is space debris in LEO originally from a launch on Fri, 25 Dec 1992 UTC launched from the Tyuratam Missile And Space Complex (TTMTR). Debris objects in space refer to the collection of defunct objects orbiting the Earth. Examples of debris include non-operational satellites, rocket bodies, and fragments generated from explosions, collisions, or faulty payload assembly.

Loading next visibility...
Identifier
22338, 1992-093AB
Orbit
LEO
Country
Flag of CISCIS
Related business
Manufacturer
Unknown
Mission
Spacecraft
Bus & Motor
Unknown
Mass
Unknown
Launch date (UTC)
1992-12-25 (33 years ago)
Launch vehicle
Unknown
Launch site
Tyuratam Missile And Space Complex (TTMTR)
Object type
Payload
Rocket body
Debris
Shape & HBR
Unknown shape, 0.1 m
Radar Cross Section
Small (<0.1 m²)

Expand to show TLE details & history
Last TLE update: 15 hours ago

TLE from 15 hours ago
0 SL-16 DEB
1 22338U 92093AB  26132.82503205  .00001359  00000-0  19828-3 0  9999
2 22338  70.6114 156.9858 0063614 115.3081  56.3561 14.76608007750298
Epoch: 2026-05-12T19:48Z
TLE epoch observation values (Epoch: 2026-05-12T19:48:02.769Z)
Latitude
7.22239°
Longitude
166.83813°
Altitude
617.305 km
Speed
7.564 km/s
True Right ascension
22h 17m 46s
True Declination
7° 10' 44"
Sunlit
Object was in daylight at epoch
Visualization orbit readout
Latitude
Unknown
Longitude
Unknown
Altitude
Unknown
Speed
Unknown
Apparent Right ascension
Unknown
Apparent Declination
Unknown
Sunlit
N/A
Visualization observer readout
Local Sidereal Time
19:33:53
Azimuth
Unknown
Elevation
Unknown
Doppler factor
Unknown
Orbital elements
Apogee altitude
682.588 km
Perigee altitude
593.324 km
Semi-major axis
7,016.093 km
Eccentricity
0.00636
Inclination
70.6114°
RAAN
156.9858°
Arg. of periapsis
115.3081°
True anomaly
56.96563°
Mean anomaly
56.3561°
Eccentric anomaly
56.6606°
Mean motion
3.69318 °/min
Orbital period
97.48 mins
BSTAR
0.00019828
Loading maneuver chart data...
Computing Atmospheric mass density...
Loading historical data...
Loading historical data...
Loading historical data...
Loading historical data...
Loading historical data...
Loading historical data...
Loading historical data...

Documentation

Showing up to 5 results
|